Location: Chacón
(10.5789°N, 66.9317°W)
Time: 19:30:23
(UTC+00:00)

Sakura Rocket - Pass Details

Date: 17 August 2024
Orbit: 475 x 1710 km, 28.7° (Epoch: 09 September)

Event Time Altitude Azimuth Distance (km) Brightness Sun altitude
Exits shadow 07:59:10 69° 83° (E) 1,085 4.2 -33.3°
Drops below altitude 10° 08:06:27 10° 115° (ESE) 3,276 7.2 -31.7°
Sets 08:09:52 0° 116° (ESE) 4,440 8.0 -30.9°
